SCP
0 0 0 0 0 1 1 2 3 4 5 6 6 5 3 3 2 2 1 1 1 1 1 1 1 1 1 1 1 1 1 1 1 2 2 2 2 2 1 1 0 0 0
0 0 0 0 0 0 1 1 2 2 3 4 5 4 4 3 2 2 2 1 1 1 1 1 1 1 1 1 1 0 1 1 1 1 2 2 2 1 1 0 0 0 0
0 0 0 0 0 0 0 0 0 0 1 2 3 3 4 4 3 2 2 2 1 1 1 1 1 1 1 0 0 0 0 1 1 1 2 2 1 1 1 0 0 0 0
0 0 0 0 0 0 0 0 0 0 0 0 1 2 3 3 3 2 2 2 2 1 1 1 1 1 0 0 0 0 0 1 1 1 1 1 1 1 0 0 0 0 0
1 1 1 0 0 0 0 0 0 0 0 0 0 1 1 2 2 2 2 2 1 1 1 1 0 0 0 0 0 0 0 0 0 1 1 1 0 0 0 0 0 0 0
1 1 1 1 1 0 0 0 0 0 0 0 0 0 1 1 1 1 1 1 1 1 1 1 0 0 0 0 0 0 0 0 0 0 0 0 0 0 0 0 0 0 0
1 1 1 1 1 1 1 1 1 1 1 0 0 0 0 0 0 0 0 1 1 1 1 1 0 0 0 0 0 0 0 0 0 0 0 0 0 0 0 0 0 0 0
1 1 1 1 1 1 1 1 1 1 1 1 1 0 0 0 0 0 0 0 1 1 1 1 0 0 0 0 0 0 0 0 0 0 0 0 0 0 0 0 0 0 0
1 1 1 1 0 0 1 1 1 1 1 1 1 1 0 0 0 0 0 0 1 1 1 1 0 0 0 0 0 0 0 0 0 0 0 0 0 0 0 0 0 0 0
1 0 0 1 0 0 1 1 1 1 1 1 1 1 1 0 0 0 0 0 0 1 1 0 0 0 0 0 0 0 0 0 0 0 0 0 0 0 0 0 0 0 0
0 0 0 0 0 0 0 1 1 1 1 1 1 1 1 0 0 0 0 0 0 0 0 0 0 0 0 0 0 0 0 0 0 0 0 0 0 0 0 0 0 0 0
0 0 0 0 0 0 0 0 0 0 0 0 1 1 1 1 0 0 0 0 0 0 0 0 0 0 0 0 0 0 0 0 0 0 0 0 0 0 0 0 0 0 0
0 0 0 0 0 0 0 0 0 1 0 0 1 1 1 1 1 0 0 0 0 0 0 0 0 0 0 0 0 0 0 0 0 0 0 0 0 0 0 0 0 0 0
0 0 0 0 0 0 0 0 0 1 1 1 1 1 1 1 1 0 0 0 0 0 0 0 0 0 0 0 0 0 0 0 0 0 0 0 0 0 0 0 0 0 0
0 0 0 0 0 0 0 0 0 0 0 0 1 1 1 1 0 0 0 0 0 0 0 0 0 0 0 0 0 0 0 0 0 0 0 0 0 0 0 0 0 0 0
0 0 0 0 0 0 0 0 0 0 0 0 0 0 0 0 0 0 0 0 0 0 0 0 0 0 0 0 0 0 0 0 0 0 0 0 0 0 0 0 0 0 0
0 0 0 0 0 0 0 0 0 0 0 0 0 0 0 0 0 0 0 0 0 0 0 0 0 0 0 0 0 0 0 0 0 0 0 0 0 0 0 0 0 0 0
0 0 0 0 0 0 0 0 0 0 0 0 0 0 0 0 0 0 0 0 0 0 0 0 0 0 0 0 0 0 0 0 0 0 0 0 0 0 0 0 0 0 0
0 0 0 0 0 0 0 0 0 0 0 0 0 0 0 0 0 0 0 0 0 0 0 0 0 0 0 0 0 0 0 0 0 0 0 0 0 0 0 0 0 0 0
0 0 0 0 0 0 0 0 0 0 0 0 0 0 0 0 0 0 0 0 0 0 0 0 0 0 0 0 0 0 0 0 0 0 0 0 0 0 0 0 0 0 0
0 0 0 0 0 0 0 0 0 0 0 0 0 0 0 0 0 0 0 0 0 0 0 0 0 0 0 0 0 0 0 0 0 0 0 0 0 0 0 0 0 0 0
0 0 0 0 0 0 0 0 0 0 0 0 0 0 0 0 0 0 0 0 0 0 0 0 0 0 0 0 0 0 0 0 0 0 0 0 0 0 0 0 0 0 0
0 0 0 0 0 0 0 0 0 0 0 0 0 0 0 0 0 0 0 0 0 0 0 0 0 0 0 0 0 0 0 0 0 0 0 0 0 0 0 0 0 0 0
0 0 0 0 0 0 0 0 0 0 0 0 0 0 0 0 0 0 0 0 0 0 0 0 0 0 0 0 0 0 0 0 0 0 0 0 0 0 0 0 0 0 0
0 0 0 0 0 0 0 0 0 0 0 0 0 0 0 0 0 0 0 0 0 0 0 0 0 0 0 0 0 0 0 0 0 0 0 0 0 0 0 0 0 0 0
0 0 0 0 0 0 0 0 0 0 0 0 0 0 0 0 0 0 0 0 0 0 0 0 0 0 0 0 0 0 0 0 0 0 0 0 0 0 0 0 0 0 0
Wind_Speed
7 7 8 9 9 8 6 6 7 7 9 9 8 7 7 7 7 6 6 7 6 5 5 5 5 5 4 4 4 5 5 5 6 2 2 4 8 10 9 9 9 8 9
6 6 7 7 8 8 8 8 8 8 7 9 9 8 9 9 8 7 7 6 5 5 5 5 6 5 4 4 4 5 5 6 6 5 3 5 8 10 10 10 9 9 9
8 8 8 8 8 8 8 8 9 9 9 8 9 9 9 9 9 8 7 6 5 5 4 4 5 5 4 3 4 5 5 5 5 6 6 5 6 8 10 11 11 9 10
11 10 10 10 9 9 9 9 10 10 9 9 8 9 10 10 10 10 8 6 5 4 4 4 4 3 3 3 3 5 4 2 4 7 8 7 7 8 9 10 9 7 8
10 11 11 11 11 10 10 10 10 11 12 9 9 9 9 10 10 10 9 8 6 5 4 3 1 4 4 2 2 3 2 2 5 7 8 7 7 7 7 6 8 7 7
8 9 10 11 12 12 12 12 11 11 11 10 10 9 9 9 12 14 11 7 4 4 3 1 4 5 6 5 5 5 5 6 7 8 8 8 7 6 4 5 7 9 7
9 10 10 10 11 12 14 13 12 11 11 10 9 8 8 7 10 12 12 7 5 4 4 3 4 7 6 6 6 7 8 10 11 10 11 9 7 5 4 5 6 7 5
10 11 11 11 12 11 10 11 10 9 8 8 8 8 7 7 7 7 10 8 6 5 5 4 6 8 7 7 6 7 6 6 8 8 9 8 7 5 5 6 7 6 6
13 12 12 12 12 11 11 10 8 8 7 7 7 8 8 5 3 4 6 6 7 7 6 6 8 8 9 8 8 9 9 7 10 13 12 11 11 8 5 6 6 6 6
13 12 12 12 12 13 11 10 9 8 8 9 8 8 7 4 1 3 6 5 6 6 5 6 10 10 10 9 8 9 9 8 9 10 8 8 8 9 9 5 2 4 6
13 12 13 12 12 13 12 10 9 9 10 10 8 7 6 4 4 5 7 4 3 3 5 6 7 13 10 9 8 7 10 9 7 7 6 5 5 6 6 6 4 2 5
13 15 15 14 14 14 10 9 9 8 9 10 9 8 7 5 6 7 9 8 4 2 3 5 8 14 11 9 8 12 14 10 5 5 5 4 5 6 6 6 6 7 7
15 16 16 16 13 12 11 10 9 8 8 9 9 8 7 5 6 9 9 8 6 0 4 5 13 16 12 8 13 15 11 5 5 5 5 5 6 7 5 4 5 6 7
16 16 14 13 12 11 9 9 8 8 8 8 8 6 4 5 6 6 6 6 6 3 1 8 15 14 9 10 10 8 5 3 4 5 7 7 6 5 4 4 4 5 6
15 13 12 11 10 9 9 8 9 8 6 5 5 4 4 5 7 9 7 5 5 5 4 5 7 8 8 7 6 5 3 3 4 7 8 7 5 5 5 5 5 5 5
12 11 8 7 7 7 8 8 10 9 7 7 7 5 3 5 8 10 9 8 9 11 7 6 7 8 9 8 7 5 4 4 5 6 6 5 5 5 4 4 4 6 6
11 10 7 7 7 7 7 7 6 7 7 7 6 5 5 8 10 11 10 9 10 11 7 6 6 7 7 7 6 5 5 5 5 6 5 5 5 5 5 3 3 4 5
9 9 8 6 6 6 6 6 6 5 5 5 4 6 8 10 10 11 11 9 7 7 5 5 6 6 7 7 7 6 6 6 5 5 5 5 5 5 4 4 4 5 5
6 4 4 4 4 4 5 5 5 5 4 4 5 6 7 9 9 10 10 6 8 7 4 3 4 5 6 6 6 6 7 6 5 5 5 5 5 5 4 4 5 5 4
3 3 4 3 2 3 3 4 4 4 5 5 6 7 8 7 5 5 5 5 5 4 3 2 2 3 5 6 7 7 7 5 5 6 5 4 4 5 5 6 6 4 2
3 2 2 2 2 2 3 4 4 4 4 5 6 8 10 8 7 8 6 5 5 4 3 2 1 3 5 7 7 7 8 6 5 6 6 4 4 4 4 5 6 4 4
4 3 1 1 1 1 2 2 2 3 4 6 8 8 9 7 8 8 6 5 5 4 4 3 3 2 5 7 7 7 8 7 5 6 6 4 4 4 5 5 6 4 4
4 3 1 0 1 2 2 2 2 3 4 6 8 8 7 6 9 9 8 7 6 5 4 4 3 2 4 6 6 6 7 7 6 6 6 5 4 3 3 4 5 5 5
5 5 3 1 1 1 2 3 3 4 4 5 6 7 7 6 8 10 10 8 7 6 5 5 4 4 6 6 6 6 5 7 7 5 6 6 5 4 3 3 4 4 4
4 4 3 2 2 1 2 2 2 3 4 4 5 5 6 7 8 10 9 9 9 8 9 8 5 4 7 9 8 6 8 9 8 7 5 4 5 5 4 5 4 4 4
1 1 1 1 1 1 1 1 2 3 4 4 5 6 7 8 10 10 10 10 9 8 7 6 7 7 8 8 9 10 11 11 10 6 4 5 4 3 4 3 5 4 5
Wind_Direction
336 336 332 331 329 326 322 334 340 338 336 325 308 289 272 262 259 257 262 273 281 293 302 308 309 303 301 294 282 267 252 234 234 222 156 140 127 120 112 113 113 105 106
294 296 298 303 309 313 316 322 323 322 324 324 316 301 282 270 261 257 261 273 283 291 301 310 309 315 322 310 304 283 261 237 214 188 155 139 133 125 121 115 110 106 105
267 269 273 277 281 285 291 298 305 307 309 312 315 310 298 283 272 263 256 258 263 274 292 302 305 312 321 328 318 304 281 251 200 161 142 131 126 125 120 112 110 110 109
254 253 256 261 264 267 271 275 279 283 288 293 302 308 306 297 282 268 258 252 252 263 276 281 292 323 342 338 329 317 302 265 157 141 134 128 121 119 120 122 120 123 128
260 257 256 256 255 256 258 261 265 269 271 272 279 290 299 300 285 275 259 250 237 242 259 268 51 71 50 27 5 342 344 103 121 127 126 123 122 127 129 133 133 133 122
275 275 269 262 258 255 254 253 254 257 258 259 258 262 274 287 304 300 275 253 236 230 239 207 140 127 103 86 70 57 67 104 122 123 124 127 123 121 120 136 139 140 139
293 288 285 280 273 260 257 254 247 248 250 251 255 256 261 274 292 284 261 242 224 220 216 203 183 137 141 125 105 85 76 85 104 119 127 127 128 138 147 160 166 156 141
293 293 293 290 288 283 267 258 254 252 251 252 257 260 263 276 303 276 252 241 229 215 195 181 146 153 159 151 137 109 99 97 110 113 117 121 129 152 176 173 158 139 128
289 289 290 288 286 287 286 277 268 262 258 254 258 257 259 261 306 257 229 243 230 214 191 173 158 157 158 158 131 115 105 95 94 103 112 118 120 121 137 140 139 133 131
286 287 287 286 282 279 280 282 283 279 269 259 252 253 257 243 135 194 197 242 240 215 183 163 160 149 151 151 141 131 123 123 122 117 117 121 111 92 82 89 118 149 141
292 292 289 283 278 274 270 267 268 271 271 265 260 257 254 227 159 169 178 208 261 246 188 165 148 146 145 143 144 136 139 138 134 127 119 113 101 86 73 58 46 112 133
299 295 288 281 275 272 267 265 261 262 266 264 256 251 250 210 178 172 170 182 185 303 262 176 152 154 149 147 141 144 151 150 144 139 135 129 110 93 81 69 59 64 87
293 288 283 278 271 264 262 262 260 254 255 256 251 242 236 206 179 187 182 169 139 126 282 195 155 151 142 136 144 153 165 176 153 147 136 117 107 108 103 92 82 77 74
288 284 279 274 268 261 253 251 251 247 246 248 249 243 213 182 188 188 189 159 121 77 336 146 142 145 138 133 146 160 192 182 146 131 116 113 119 132 139 140 127 110 93
281 278 275 270 265 262 257 249 246 241 233 247 257 241 198 193 204 189 184 164 140 123 139 157 149 143 139 146 159 177 181 143 126 118 122 135 153 160 156 152 140 129 120
278 274 268 265 263 258 253 254 236 227 225 244 252 249 202 175 164 169 168 152 141 145 164 178 161 151 151 156 165 167 156 142 129 127 138 156 162 149 140 148 155 150 146
275 273 269 263 257 252 246 240 233 214 212 225 229 207 162 147 155 161 158 155 154 160 183 183 163 156 155 160 162 160 156 144 135 142 154 157 145 135 141 162 160 139 135
279 277 272 262 253 247 241 231 222 206 197 193 176 162 146 143 148 152 147 145 160 180 196 178 163 162 158 159 161 160 149 142 148 155 153 148 144 146 155 160 144 135 129
291 285 278 270 251 238 228 216 211 200 204 188 143 127 119 120 126 145 152 165 170 180 191 183 168 162 155 153 150 143 139 148 160 148 144 149 152 151 158 157 124 120 142
307 302 297 282 250 220 209 205 205 198 198 181 156 144 140 137 136 151 161 158 164 179 192 203 186 159 151 142 133 134 142 153 153 144 143 152 155 158 157 141 132 147 183
342 329 292 264 247 226 208 200 199 195 187 164 150 148 156 153 149 152 150 157 171 186 209 224 229 162 141 133 137 145 150 152 159 149 148 164 161 147 137 133 144 172 169
353 355 354 219 204 188 192 197 195 180 166 141 133 140 157 151 144 147 153 169 187 204 217 228 229 179 150 147 146 155 155 157 167 152 149 160 143 144 150 152 164 174 155
358 7 17 30 138 160 195 179 167 160 147 138 135 143 160 152 146 152 166 180 194 210 216 221 230 202 163 149 147 158 158 156 162 151 149 153 150 155 159 158 162 162 160
1 9 25 57 120 146 145 145 147 140 134 133 137 147 156 154 157 164 174 182 192 201 215 219 225 207 172 151 151 166 163 152 155 154 157 157 158 164 168 159 164 176 177
357 2 10 21 45 79 127 150 149 144 148 156 158 162 166 171 172 175 181 185 192 201 206 205 211 213 186 169 164 160 143 138 148 156 156 166 171 173 177 176 177 191 198
351 348 328 308 285 252 231 205 197 196 189 187 186 185 184 183 178 177 182 185 192 197 199 203 211 204 180 172 154 136 135 132 126 128 161 174 190 193 187 194 201 206 212